7 * 24
多渠道服务支持
STARLINK-35623是美国于2025年10月22日发射的星链卫星,隶属于SpaceX公司的星链星座项目。星链项目旨在构建全球卫星互联网星座,为全球提供高速低延迟宽带服务。该卫星的成功发射进一步扩充了星链星座的规模,推动了全球卫星互联网覆盖能力的提升。
美国
(US)
| 数据来源 | 国际轨道数据 |
| 星历时间: | 2026-03-13T14:15:42+0800 1天前 查看轨道信息 |
| 半长轴: | 6853.347km |
| 偏心率: | 0.0001062 |
| 轨道倾角: | 53.161° |
| 近地点辐角 | 80.847° |
| 升交点赤经 | 23.294° |
| 平近点角 | 279.266° |
| 近地点: | 474.482km |
| 远地点: | 475.938km |
| 周期: | 94.105分钟 |
| 每日圈数: | 15.302018 |